Location: Bannatyne
(13.0833°N, 59.5333°W)
Time: 16:57:00
(UTC+00:00)

ISS - Pass Details

Date: 20 June 2021
Orbit: 419 x 421 km, 51.6° (Epoch: 02 August)

Event Time Altitude Azimuth Distance (km) Brightness Sun altitude
Exits shadow 09:05:19 - 248° (WSW) 1,583 -1.5 -6.9°
Reaches altitude 10° 09:05:35 10° 250° (WSW) 1,488 -1.6 -6.9°
Maximum altitude 09:08:27 26° 309° (NW) 859 -2.4 -6.2°
Drops below altitude 10° 09:11:18 10° 8° (N) 1,488 -0.5 -5.6°
Sets 09:13:37 0° 21° (NNE) 2,351 0.9 -5.1°
